Cedar Rapids, IA

7:54 PM CST on November 15, 2019 (GMT -0600)
The Eastern Iowa Airport

Weather History for KCID - September, 2019

Change the Weather History Date:

Sunday, September 8, 2019

  Actual Average Record
Temperature  
Mean Temperature 64 °F 66 °F  
Max Temperature 68 °F 77 °F 98 °F (1922)
Min Temperature 59 °F 55 °F 38 °F (1986)
Degree Days  
Heating Degree Days 1 2  
Month to date heating degree days 7 14  
Since 1 July heating degree days 15 33  
Cooling Degree Days 0 3  
Month to date cooling degree days 13 32  
Year to date cooling degree days 665 700  
Growing Degree Days 12 (Base 50)    
Moisture  
Dew Point 61 °F    
Average Humidity 91    
Maximum Humidity 100    
Minimum Humidity 81    
Precipitation  
Precipitation 0.42 in 0.12 in 5.05 in (1941)
Month to date precipitation 0.75 0.93  
Year to date precipitation 28.60 26.23  
Sea Level Pressure  
Sea Level Pressure 30.04 in    
Wind  
Wind Speed 10 mph (East)    
Max Wind Speed 20 mph    
Max Gust Speed 25 mph    
Visibility 7 miles    
Events Rain , Thunderstorm    
T = Trace of Precipitation, MM = Missing Value Source: NWS Daily Summary

Daily Weather History Graph

Daily Weather History Graph

Search for Another Location

Airport or City:

Astronomy

Sep. 08, 2019 Rise Set
Actual Time 6:39 AM CDT 7:28 PM CDT
Civil Twilight 6:11 AM CDT 7:56 PM CDT
Nautical Twilight 5:37 AM CDT 8:30 PM CDT
Astronomical Twilight 5:02 AM CDT 9:05 PM CDT
Moon 4:42 PM CDT (9/8) 1:14 AM CDT (9/8)
Length of Visible Light 13h 45m
Length of Day
12h 49m
Waxing Gibbous, 75% of the Moon is Illuminated
Sep 8
Waxing Gibbous
Sep 13
Full
Sep 21
Last Quarter
Sep 28
New
Oct 5
First Quarter

Hourly Weather History & Observations

Time (CDT) Temp. Dew Point Humidity Pressure Visibility Wind Dir Wind Speed Gust Speed Precip Events Conditions
12:52 AM 62.1 °F 61.0 °F 96% 30.02 in 10.0 mi East 9.2 mph - N/A   Overcast
1:22 AM 62.1 °F 61.0 °F 96% 30.05 in 10.0 mi East 3.5 mph - 0.00 in Rain Light Rain
1:52 AM 61.0 °F 61.0 °F 100% 30.04 in 7.0 mi East 3.5 mph - 0.05 in Rain Light Rain
2:25 AM 61.0 °F 61.0 °F 100% 30.05 in 9.0 mi ENE 6.9 mph - 0.07 in Rain , Thunderstorm Light Rain
2:52 AM 61.0 °F 61.0 °F 100% 30.04 in 6.0 mi East 4.6 mph - 0.09 in Rain , Thunderstorm Light Rain
3:05 AM 60.1 °F 60.1 °F 100% 30.06 in 2.0 mi SE 3.5 mph - 0.08 in Rain Heavy Rain
3:11 AM 60.1 °F 60.1 °F 100% 30.06 in 1.8 mi SE 3.5 mph - 0.12 in Rain Heavy Rain
3:15 AM 60.1 °F 60.1 °F 100% 30.06 in 2.0 mi ESE 3.5 mph - 0.13 in Rain Heavy Rain
3:27 AM 60.1 °F 60.1 °F 100% 30.05 in 3.0 mi ESE 5.8 mph - 0.17 in Rain Rain
3:36 AM 60.1 °F 60.1 °F 100% 30.04 in 4.0 mi ESE 9.2 mph - 0.18 in Rain , Thunderstorm Thunderstorms and Rain
3:52 AM 60.1 °F 60.1 °F 100% 30.01 in 4.0 mi East 11.5 mph - 0.23 in Rain Rain
3:58 AM 60.1 °F 60.1 °F 100% 29.99 in 4.0 mi ESE 15.0 mph - 0.01 in Rain Rain
4:10 AM 60.1 °F 60.1 °F 100% 29.98 in 5.0 mi East 12.7 mph - 0.03 in Rain Rain
4:40 AM 60.1 °F 60.1 °F 100% 30.02 in 10.0 mi East 11.5 mph - 0.05 in Rain Light Rain
4:52 AM 60.1 °F 60.1 °F 100% 30.01 in 10.0 mi NNE 9.2 mph - 0.05 in   Overcast
5:00 AM 60.1 °F 60.1 °F 100% 30.02 in 10.0 mi NE 9.2 mph - N/A   Overcast
5:42 AM 59.0 °F 59.0 °F 100% 30.00 in 10.0 mi ENE 11.5 mph - N/A   Overcast
5:52 AM 59.0 °F 59.0 °F 100% 30.01 in 10.0 mi East 12.7 mph - N/A   Overcast
6:27 AM 59.0 °F 59.0 °F 100% 30.04 in 10.0 mi East 9.2 mph - N/A   Overcast
6:52 AM 59.0 °F 59.0 °F 100% 30.04 in 10.0 mi East 6.9 mph - N/A   Overcast
7:52 AM 59.0 °F 59.0 °F 100% 30.04 in 8.0 mi East 9.2 mph - 0.00 in   Overcast
8:52 AM 61.0 °F 61.0 °F 100% 30.05 in 9.0 mi East 9.2 mph - N/A   Overcast
9:52 AM 62.1 °F 61.0 °F 96% 30.07 in 10.0 mi East 8.1 mph - N/A   Overcast
10:52 AM 64.0 °F 62.1 °F 93% 30.06 in 10.0 mi East 11.5 mph - N/A   Overcast
11:11 AM 64.9 °F 62.1 °F 90% 30.06 in 10.0 mi East 9.2 mph - N/A   Overcast
11:52 AM 66.0 °F 61.0 °F 84% 30.05 in 10.0 mi ESE 10.4 mph - N/A   Overcast
12:00 PM 66.0 °F 61.0 °F 84% 30.05 in 10.0 mi East 11.5 mph - N/A   Overcast
12:52 PM 66.9 °F 62.1 °F 84% 30.04 in 10.0 mi East 10.4 mph - N/A   Overcast
1:52 PM 66.9 °F 62.1 °F 84% 30.03 in 10.0 mi East 12.7 mph - N/A   Overcast
2:52 PM 66.9 °F 63.0 °F 87% 30.03 in 10.0 mi East 10.4 mph - N/A   Overcast
3:07 PM 66.0 °F 63.0 °F 90% 30.03 in 10.0 mi East 11.5 mph - N/A   Overcast
3:16 PM 66.0 °F 62.1 °F 87% 30.03 in 10.0 mi East 10.4 mph - N/A   Overcast
3:52 PM 66.0 °F 62.1 °F 87% 30.02 in 10.0 mi East 12.7 mph - N/A   Overcast
4:20 PM 66.0 °F 62.1 °F 87% 30.02 in 10.0 mi East 10.4 mph - N/A   Overcast
4:52 PM 64.9 °F 63.0 °F 93% 30.03 in 6.0 mi East 10.4 mph - N/A   Overcast
5:52 PM 64.9 °F 63.0 °F 93% 30.04 in 8.0 mi East 11.5 mph - N/A   Overcast
6:09 PM 64.0 °F 63.0 °F 96% 30.04 in 6.0 mi East 11.5 mph - N/A   Overcast
6:37 PM 64.0 °F 63.0 °F 96% 30.05 in 5.0 mi East 11.5 mph - N/A   Overcast
6:52 PM 63.0 °F 63.0 °F 100% 30.05 in 3.0 mi East 8.1 mph - N/A   Overcast
7:03 PM 63.0 °F 63.0 °F 100% 30.06 in 2.5 mi East 10.4 mph - N/A   Overcast
7:10 PM 63.0 °F 63.0 °F 100% 30.07 in 3.0 mi East 6.9 mph - N/A   Overcast
7:52 PM 63.0 °F 63.0 °F 100% 30.05 in 3.0 mi East 13.8 mph - N/A   Overcast
8:15 PM 63.0 °F 63.0 °F 100% 30.06 in 2.0 mi East 13.8 mph - N/A   Overcast
8:52 PM 62.1 °F 62.1 °F 100% 30.05 in 3.0 mi East 15.0 mph 25.3 mph N/A   Overcast
9:52 PM 62.1 °F 62.1 °F 100% 30.08 in 4.0 mi East 9.2 mph - N/A   Overcast
10:09 PM 62.1 °F 62.1 °F 100% 30.10 in 2.0 mi East 8.1 mph - N/A   Overcast
10:17 PM 62.1 °F 62.1 °F 100% 30.10 in 1.8 mi East 9.2 mph - N/A   Overcast
10:52 PM 62.1 °F 62.1 °F 100% 30.10 in 2.0 mi East 6.9 mph 20.7 mph N/A   Overcast
11:06 PM 62.1 °F 62.1 °F 100% 30.10 in 3.0 mi East 10.4 mph - N/A   Overcast
11:52 PM 62.1 °F 62.1 °F 100% 30.09 in 4.0 mi East 9.2 mph - N/A   Overcast